Youngstown, OH

11:03 PM EST on November 21, 2017 (GMT -0500)
Youngstown-Warren Regional

Weather History for KYNG - October, 2010

Change the Weather History Date:

Monday, October 4, 2010

  Actual Average Record
Temperature  
Mean Temperature 46 °F 55 °F  
Max Temperature 53 °F 65 °F 86 °F (1898)
Min Temperature 38 °F 45 °F 30 °F (1974)
Degree Days  
Heating Degree Days 19 11  
Month to date heating degree days 64 41  
Since 1 July heating degree days 201 224  
Cooling Degree Days 0 0  
Month to date cooling degree days 0 3  
Year to date cooling degree days 792 541  
Moisture  
Dew Point 44 °F    
Average Humidity 87    
Maximum Humidity 96    
Minimum Humidity 77    
Precipitation  
Precipitation 0.31 in 0.09 in 1.62 in (1954)
Month to date precipitation 1.07 0.39  
Year to date precipitation 28.45 30.36  
Snow  
Snow 0.00 in 0.00 in - ()
Month to date snowfall 0.0 0.0  
Since 1 July snowfall 0.0 0.0  
Since 1 September snowfall 0.0 0.0  
Snow Depth 0.00 in    
Sea Level Pressure  
Sea Level Pressure 30.24 in    
Wind  
Wind Speed 7 mph (North)    
Max Wind Speed 14 mph    
Max Gust Speed 17 mph    
Visibility 9 miles    
Events Rain    
T = Trace of Precipitation, MM = Missing Value Source: NWS Daily Summary

Daily Weather History Graph

Daily Weather History Graph

Search for Another Location

Airport or City:

Trip Planner

Search our weather history database for the weather conditions in past years. The results will help you decide how hot, cold, wet, or windy it might be!

Date:

Astronomy

Oct. 04, 2010 Rise Set
Actual Time 7:22 AM EDT 6:59 PM EDT
Civil Twilight 6:54 AM EDT 7:27 PM EDT
Nautical Twilight 6:22 AM EDT 7:59 PM EDT
Astronomical Twilight 5:50 AM EDT 8:31 PM EDT
Moon 3:27 AM EDT (10/4) 4:59 PM EDT (10/4)
Length of Visible Light 12h 32m
Length of Day
11h 37m
Waning Crescent, 14% of the Moon is Illuminated
Oct 4
Waning Crescent
Oct 7
New
Oct 14
First Quarter
Oct 22
Full
Oct 30
Last Quarter

Hourly Weather History & Observations

Time (EDT) Temp. Windchill Dew Point Humidity Pressure Visibility Wind Dir Wind Speed Gust Speed Precip Events Conditions
12:51 AM 46.0 °F 40.6 °F 41.0 °F 83% 30.23 in 10.0 mi NE 11.5 mph - N/A   Overcast
1:51 AM 45.0 °F 40.6 °F 39.9 °F 82% 30.23 in 10.0 mi NNE 8.1 mph - N/A   Overcast
2:51 AM 44.1 °F 39.0 °F 39.9 °F 85% 30.24 in 10.0 mi NNE 9.2 mph - N/A   Overcast
3:51 AM 43.0 °F 38.8 °F 39.9 °F 89% 30.22 in 10.0 mi North 6.9 mph - N/A   Mostly Cloudy
4:51 AM 41.0 °F 38.0 °F 39.0 °F 93% 30.23 in 10.0 mi North 4.6 mph - N/A   Partly Cloudy
5:51 AM 39.0 °F 36.8 °F 37.9 °F 96% 30.24 in 10.0 mi North 3.5 mph - N/A   Scattered Clouds
6:51 AM 42.1 °F 37.7 °F 39.9 °F 92% 30.25 in 10.0 mi NNE 6.9 mph - N/A   Mostly Cloudy
7:51 AM 43.0 °F 40.3 °F 41.0 °F 93% 30.25 in 10.0 mi NE 4.6 mph - N/A   Mostly Cloudy
8:51 AM 45.0 °F 42.6 °F 42.1 °F 90% 30.27 in 10.0 mi North 4.6 mph - N/A   Overcast
9:51 AM 45.0 °F 41.8 °F 42.1 °F 90% 30.28 in 10.0 mi NNE 5.8 mph - 0.00 in Rain Light Rain
10:51 AM 45.0 °F 41.2 °F 43.0 °F 93% 30.30 in 6.0 mi ENE 6.9 mph - 0.05 in Rain Light Rain
11:51 AM 48.0 °F - 44.1 °F 86% 30.29 in 10.0 mi East 4.6 mph - 0.01 in   Overcast
12:51 PM 52.0 °F - 45.0 °F 77% 30.27 in 10.0 mi North 8.1 mph - N/A   Overcast
1:51 PM 52.0 °F - 45.0 °F 77% 30.24 in 10.0 mi North 8.1 mph - 0.00 in   Overcast
2:38 PM 50.0 °F - 46.4 °F 87% 30.21 in 10.0 mi NW 6.9 mph - 0.00 in Rain Light Rain
2:51 PM 51.1 °F - 46.9 °F 86% 30.23 in 10.0 mi NW 8.1 mph - 0.00 in Rain Light Rain
3:33 PM 51.8 °F - 48.2 °F 88% 30.21 in 8.0 mi NNW 5.8 mph - N/A Rain Light Rain
3:51 PM 51.1 °F - 48.0 °F 89% 30.23 in 10.0 mi NW 6.9 mph - 0.01 in Rain Light Rain
4:36 PM 50.0 °F - 46.4 °F 87% 30.21 in 7.0 mi NNE 5.8 mph - 0.02 in Rain Rain
4:51 PM 48.9 °F - 46.9 °F 93% 30.24 in 3.0 mi NNE 8.1 mph - 0.08 in Rain Heavy Rain
5:36 PM 48.2 °F - 46.4 °F 93% 30.22 in 7.0 mi North 5.8 mph - 0.10 in Rain Light Rain
5:51 PM 48.9 °F - 46.9 °F 93% 30.24 in 7.0 mi North 6.9 mph - 0.11 in Rain Light Rain
6:36 PM 48.2 °F - 46.4 °F 93% 30.23 in 7.0 mi NNW 9.2 mph - 0.01 in Rain Light Rain
6:51 PM 48.0 °F - 46.9 °F 96% 30.25 in 7.0 mi North 6.9 mph - 0.01 in Rain Light Rain
7:26 PM 48.2 °F - 46.4 °F 93% 30.23 in 6.0 mi NNW 6.9 mph - 0.02 in Rain Light Rain
7:51 PM 46.9 °F - 45.0 °F 93% 30.26 in 6.0 mi NNE 9.2 mph - 0.03 in Rain Light Rain
8:29 PM 46.4 °F 41.5 °F 44.6 °F 93% 30.24 in 9.0 mi NNE 10.4 mph - 0.01 in Rain Light Rain
8:51 PM 46.0 °F 41.4 °F 44.1 °F 93% 30.26 in 10.0 mi NNE 9.2 mph - 0.01 in Rain Light Rain
9:51 PM 46.0 °F 41.0 °F 43.0 °F 89% 30.27 in 10.0 mi NNE 10.4 mph - 0.00 in   Overcast
10:51 PM 45.0 °F 40.6 °F 41.0 °F 86% 30.25 in 10.0 mi North 8.1 mph - 0.00 in Rain Light Rain
11:51 PM 44.1 °F 40.8 °F 42.1 °F 93% 30.24 in 10.0 mi North 5.8 mph - 0.00 in   Overcast